National Weather Service United States Department of Commerce


000
ASUS42 KCAE 182210
RWRCAE
REGIONAL WEATHER ROUNDUP
NATIONAL WEATHER SERVICE COLUMBIA SC
600 PM EDT MON OCT 18 2021

NOTE: "FAIR" INDICATES FEW OR NO CLOUDS BELOW 12,000 FEET WITH NO
SIGNIFICANT WEATHER AND/OR OBSTRUCTIONS TO VISIBILITY.

NOT ALL STATIONS ARE QUALITY CONTROLLED BY THE NATIONAL
WEATHER SERVICE. USE DATA WITH CAUTION...ESPECIALLY
DEWPOINT OBSERVATIONS.

SCZ001>059-115-116-135>137-GAZ040-063>065-077-182300-
...UPSTATE SOUTH CAROLINA...

CITY SKY/WX TMP DP RH WIND PRES REMARKS
ANDERSON CLEAR 70 45 40 SW8 30.13F
LIBERTY CLEAR 70 45 41 SW3 30.13S
SPARTANBURG CLEAR 70 37 30 SW5 30.12S
CLEMSON CLEAR 68 45 43 CALM 30.14S
GREENVILLE CLEAR 71 42 35 SW9 30.14R
GREENWOOD CLEAR 67 44 43 W6 30.15S
GREER CLEAR 70 42 36 SW8 30.13S
ROCK HILL CLEAR 70 40 33 W6 30.12S
LAURENS CLEAR 70 43 37 W3 30.13S


...CENTRAL SOUTH CAROLINA...

CITY SKY/WX TMP DP RH WIND PRES REMARKS
COLUMBIA APT PTCLDY 72 42 34 W6 30.11S
COLUMBIA OWENS CLEAR 74 38 27 W7 30.12F
MCENTIRE ANGB CLEAR 72 39 30 W3 30.10S
ORANGEBURG CLEAR 72 41 32 W5 30.13S
SUMTER SHAW CLEAR 72 38 29 W7 30.10S
NEWBERRY CLEAR 70 41 35 W5 30.16S
AIKEN FAIR 70 42 36 NW6 30.15S
BARNWELL FAIR 73 39 29 SW7 30.13S
MANNING FAIR 72 41 33 W5 30.12R
CAMDEN FAIR 72 39 30 W6 30.11F
LANCASTER CLEAR 72 39 30 W6 30.11S
WINNSBORO CLEAR 70 41 35 W3 30.12S


...EASTERN AND COASTAL SOUTH CAROLINA...

CITY SKY/WX TMP DP RH WIND PRES REMARKS
MYRTLE BEACH CLEAR 71 43 36 NW8 30.10R
N MYRTLE BCH CLEAR 71 41 33 CALM 30.08S
CONWAY FAIR 66 46 48 CALM 30.10R
MARION FAIR 70 41 35 NW3 30.09S
HARTSVILLE FAIR 72 39 30 CALM 30.10S
FLORENCE CLEAR 75 36 24 NW7 30.10S
DARLINGTON CLEAR 72 42 34 W5 30.10S
CHARLESTON APT PTCLDY 71 43 36 NW5 30.12R
MOUNT PLEASANT FAIR 72 43 35 CALM 30.11S
WALTERBORO CLEAR 72 43 35 W3 30.14S
BEAUFORT PTCLDY 75 43 31 CALM 30.13S
HILTON HEAD CLEAR 68 50 52 CALM 30.14S


...EASTERN GEORGIA...

CITY SKY/WX TMP DP RH WIND PRES REMARKS
AUGUSTA BUSH F CLEAR 72 44 36 E5 30.13S
AUGUSTA DANIEL CLEAR 73 38 27 N3 30.14F
THOMSON CLEAR 70 45 40 CALM 30.15S
WASHINGTON FAIR 70 46 41 SW5 30.15S
CLAXTON FAIR 67 54 64 CALM 30.14S
SYLVANIA CLEAR 73 42 33 CALM 30.15S
STATESBORO CLEAR 71 47 43 CALM 30.13F
SAVANNAH PTCLDY 70 45 40 N6 30.14R


...SOUTHERN NORTH CAROLINA...

CITY SKY/WX TMP DP RH WIND PRES REMARKS
CHARLOTTE CLEAR 71 41 33 W6 30.11S
MONROE CLEAR 71 37 28 W7 30.09F
WADESBORO CLEAR 72 37 28 CALM 30.09S
ROCKINGHAM CLEAR 71 43 36 CALM 30.09S
RUTHERFORDTON CLEAR 68 43 40 CALM 30.13S
ASHEVILLE CLEAR 66 33 29 N8 30.16R

$$